Project,Study,Ord_Occ,Event_Num,Cast_ID,Date_Time_UTC,Date_Time_PST,Lat_Dec,Lon_Dec,Sta_ID,Line,Sta,Depth,Pressure,PrQ,Temp1,Temp1Q,Temp2,Temp2Q,TempAve,Salt1,Salt1Q,Salt1_Corr,Salt2,Salt2Q,Salt2_Corr,SaltAve_Corr,Ox1,Ox1Q,Ox1_CruiseCorr,Ox1_StaCorr,Ox2,Ox2Q,Ox2_CruiseCorr,Ox2_StaCorr,OxAve_StaCorr,Ox1uM,Ox1uM_CruiseCorr,Ox1uM_StaCorr,Ox2uM,Ox2uM_CruiseCorr,Ox2uM_StaCorr,OxAveuM_StaCorr,FluorV,FluorQ,EstChl_CruiseCorr,EstChl_StaCorr,ISUSV,ISUSQ,EstNO3_CruiseCorr,EstNO3_StaCorr,SigThetaTS1,SigThetaTS1Q,SigThetaTS2,SigThetaTS2Q,BAT,XMiss,TransQ,pH,pHQ,SPAR,SPARQ,PAR,PARQ,PoT1,PoT2,DynHt,SVA,OxSat1,OxSat2,BTL_Depth,BTL_Temp,SaltB,OxB,OxBuM,Chl-a,Phaeo,NO3,NO2,NH4,PO4,SIL
CalCOFI,2007SR,015,,2007_015u,16-Jul-2020 00:26:32,15-Jul-2020 16:26:32,30.51328,-122.25876,093.3 100.0,093.3,100.0,517.000,521.220,,5.7093,,5.7089,,5.7091,34.2259,,34.2261,34.2273,,34.2289,34.2275,0.4103,,0.4110,0.3950,1.9129,,0.6255,0.6786,0.5368,17.844,18.1393,22.4146,83.186,,37.8125,30.1136,0.0323,,,,1.7747,,39.5937,39.317,26.9826,,26.9838,,0.6254,85.5269,,7.535,,8.8980E+02,,1.0000E-12,,5.6651,5.6646,1.0596,,5.869,27.360,,,,,,,,,,,,
CalCOFI,2007SR,015,,2007_015u,16-Jul-2020 00:26:34,15-Jul-2020 16:26:34,30.51328,-122.25876,093.3 100.0,093.3,100.0,516.000,520.210,,5.7102,,5.7101,,5.7102,34.2250,,34.2252,34.2264,,34.2280,34.2266,0.4103,,0.4110,0.3950,1.9149,,0.6302,0.6838,0.5394,17.842,18.1372,22.4127,83.274,,38.0105,30.2116,0.0317,,,,1.7761,,39.6330,39.357,26.9818,,26.9829,,0.6254,85.5269,,7.536,,8.8467E+02,,1.0000E-12,,5.6661,5.6660,1.0596,,5.868,27.389,516,5.710,34.2213,0.395,17.25,,,40.27,0.00,0.05,3.09,80.52
CalCOFI,2007SR,015,,2007_015u,16-Jul-2020 00:26:45,15-Jul-2020 16:26:45,30.51328,-122.25877,093.3 100.0,093.3,100.0,515.000,519.201,,5.7058,,5.7067,,5.7063,34.2255,,34.2257,34.2268,,34.2284,34.2271,0.4091,,0.4098,0.3937,1.8964,,0.5861,0.6361,0.5149,17.790,18.0829,22.3637,82.468,,36.1969,29.2803,0.0323,,,,1.7943,,40.1441,39.868,26.9827,,26.9836,,0.6252,85.5312,,7.536,,8.8448E+02,,1.0000E-12,,5.6618,5.6627,1.0611,,5.851,27.122,,,,,,,,,,,,
CalCOFI,2007SR,015,,2007_015u,16-Jul-2020 00:26:51,15-Jul-2020 16:26:51,30.51328,-122.25876,093.3 100.0,093.3,100.0,514.000,518.192,,5.7055,,5.7063,,5.7059,34.2253,,34.2255,34.2266,,34.2282,34.2269,0.4213,,0.4225,0.4066,1.8854,,0.5598,0.6078,0.5072,18.320,18.6361,22.8627,81.990,,35.1213,28.9920,0.0316,,,,1.7953,,40.1722,39.896,26.9825,,26.9835,,0.6254,85.5268,,7.538,,8.8273E+02,,1.0000E-12,,5.6615,5.6623,1.0617,,6.025,26.964,,,,,,,,,,,,
CalCOFI,2007SR,015,,2007_015u,16-Jul-2020 00:26:52,15-Jul-2020 16:26:52,30.51328,-122.25876,093.3 100.0,093.3,100.0,513.000,517.182,,5.7160,,5.7176,,5.7168,34.2228,,34.2230,34.2241,,34.2257,34.2244,0.4278,,0.4293,0.4134,1.8886,,0.5675,0.6161,0.5148,18.605,18.9337,23.1310,82.130,,35.4363,29.2837,0.0322,,,,1.7931,,40.1104,39.834,26.9793,,26.9801,,0.6254,85.5269,,7.538,,8.7620E+02,,1.0000E-12,,5.6721,5.6737,1.0617,,6.120,27.017,,,,,,,,,,,,
CalCOFI,2007SR,015,,2007_015u,16-Jul-2020 00:26:53,15-Jul-2020 16:26:53,30.51328,-122.25876,093.3 100.0,093.3,100.0,512.000,516.173,,5.7235,,5.7235,,5.7235,34.2185,,34.2187,34.2199,,34.2215,34.2201,0.4312,,0.4329,0.4170,1.8833,,0.5548,0.6024,0.5097,18.752,19.0871,23.2694,81.899,,34.9166,29.0930,0.0330,,,,1.7919,,40.0767,39.800,26.9750,,26.9761,,0.6252,85.5308,,7.539,,8.7103E+02,,1.0000E-12,,5.6796,5.6797,1.0617,,6.169,26.944,,,,,,,,,,,,
CalCOFI,2007SR,015,,2007_015u,16-Jul-2020 00:26:54,15-Jul-2020 16:26:54,30.51328,-122.25876,093.3 100.0,093.3,100.0,511.000,515.163,,5.7252,,5.7255,,5.7254,34.2176,,34.2178,34.2189,,34.2205,34.2192,0.4343,,0.4361,0.4203,1.8807,,0.5486,0.5957,0.5080,18.885,19.2260,23.3946,81.784,,34.6578,29.0262,0.0318,,,,1.7909,,40.0486,39.772,26.9740,,26.9750,,0.6247,85.5415,,7.538,,8.7225E+02,,1.0000E-12,,5.6815,5.6817,1.0617,,6.213,26.907,,,,,,,,,,,,
CalCOFI,2007SR,015,,2007_015u,16-Jul-2020 00:26:55,15-Jul-2020 16:26:55,30.51328,-122.25876,093.3 100.0,093.3,100.0,510.000,514.154,,5.7262,,5.7263,,5.7263,34.2173,,34.2175,34.2185,,34.2201,34.2188,0.4354,,0.4372,0.4214,1.8796,,0.5460,0.5929,0.5072,18.935,19.2781,23.4417,81.736,,34.5498,28.9958,0.0318,,,,1.7899,,40.0205,39.744,26.9737,,26.9746,,0.6252,85.5304,,7.538,,8.7530E+02,,1.0000E-12,,5.6825,5.6826,1.0617,,6.230,26.892,,,,,,,,,,,,
CalCOFI,2007SR,015,,2007_015u,16-Jul-2020 00:26:56,15-Jul-2020 16:26:56,30.51328,-122.25876,093.3 100.0,093.3,100.0,509.000,513.145,,5.7239,,5.7242,,5.7241,34.2157,,34.2159,34.2169,,34.2185,34.2172,0.4351,,0.4369,0.4211,1.8819,,0.5515,0.5988,0.5100,18.919,19.2614,23.4266,81.839,,34.7816,29.1041,0.0323,,,,1.7891,,39.9981,39.722,26.9727,,26.9736,,0.6252,85.5316,,7.538,,8.7849E+02,,1.0000E-12,,5.6804,5.6807,1.0617,,6.224,26.924,,,,,,,,,,,,
CalCOFI,2007SR,015,,2007_015u,16-Jul-2020 00:26:57,15-Jul-2020 16:26:57,30.51328,-122.25876,093.3 100.0,093.3,100.0,508.000,512.135,,5.7291,,5.7296,,5.7294,34.2156,,34.2158,34.2171,,34.2187,34.2173,0.4358,,0.4377,0.4218,1.8750,,0.5350,0.5810,0.5014,18.954,19.2980,23.4596,81.540,,34.1088,28.7842,0.0322,,,,1.7886,,39.9840,39.708,26.9719,,26.9731,,0.6253,85.5295,,7.538,,8.7888E+02,,1.0000E-12,,5.6856,5.6861,1.0617,,6.236,26.829,,,,,,,,,,,,
CalCOFI,2007SR,015,,2007_015u,16-Jul-2020 00:26:58,15-Jul-2020 16:26:58,30.51328,-122.25876,093.3 100.0,093.3,100.0,507.000,511.126,,5.7420,,5.7418,,5.7419,34.2169,,34.2171,34.2183,,34.2199,34.2185,0.4320,,0.4337,0.4178,1.8720,,0.5278,0.5733,0.4956,18.785,19.1216,23.3005,81.408,,33.8118,28.5562,0.0314,,,,1.7886,,39.9840,39.708,26.9714,,26.9725,,0.6248,85.5387,,7.538,,8.7398E+02,,1.0000E-12,,5.6985,5.6983,1.0617,,6.182,26.793,,,,,,,,,,,,
CalCOFI,2007SR,015,,2007_015u,16-Jul-2020 00:26:59,15-Jul-2020 16:26:59,30.51328,-122.25876,093.3 100.0,093.3,100.0,506.000,510.116,,5.7612,,5.7597,,5.7605,34.2183,,34.2185,34.2200,,34.2216,34.2201,0.4323,,0.4340,0.4181,1.8752,,0.5355,0.5816,0.4999,18.800,19.1372,23.3146,81.549,,34.1290,28.7218,0.0320,,,,1.7891,,39.9981,39.722,26.9702,,26.9716,,0.6254,85.5267,,7.538,,8.6834E+02,,1.0000E-12,,5.7178,5.7163,1.0617,,6.190,26.851,,,,,,,,,,,,
CalCOFI,2007SR,015,,2007_015u,16-Jul-2020 00:27:00,15-Jul-2020 16:27:00,30.51328,-122.25876,093.3 100.0,093.3,100.0,505.000,509.107,,5.7780,,5.7793,,5.7787,34.2189,,34.2191,34.2203,,34.2219,34.2205,0.4362,,0.4381,0.4223,1.8727,,0.5295,0.5751,0.4987,18.970,19.3147,23.4747,81.439,,33.8815,28.6781,0.0324,,,,1.7895,,40.0093,39.733,26.9685,,26.9695,,0.6254,85.5280,,7.538,,8.6706E+02,,1.0000E-12,,5.7346,5.7359,1.0617,,6.249,26.828,,,,,,,,,,,,
CalCOFI,2007SR,015,,2007_015u,16-Jul-2020 00:27:01,15-Jul-2020 16:27:01,30.51328,-122.25876,093.3 100.0,093.3,100.0,504.000,508.098,,5.7880,,5.7887,,5.7884,34.2186,,34.2188,34.2198,,34.2214,34.2201,0.4442,,0.4464,0.4307,1.8644,,0.5097,0.5538,0.4923,19.315,19.6748,23.7995,81.077,,33.0670,28.4333,0.0321,,,,1.7893,,40.0037,39.727,26.9670,,26.9680,,0.6251,85.5325,,7.538,,8.6922E+02,,1.0000E-12,,5.7446,5.7453,1.0617,,6.364,26.714,,,,,,,,,,,,
CalCOFI,2007SR,015,,2007_015u,16-Jul-2020 00:27:02,15-Jul-2020 16:27:02,30.51328,-122.25876,093.3 100.0,093.3,100.0,503.000,507.088,,5.7918,,5.7921,,5.7920,34.2170,,34.2172,34.2180,,34.2196,34.2184,0.4476,,0.4500,0.4343,1.8631,,0.5066,0.5504,0.4924,19.463,19.8293,23.9388,81.024,,32.9477,28.4433,0.0313,,,,1.7885,,39.9812,39.705,26.9653,,26.9660,,0.6250,85.5347,,7.538,,8.7274E+02,,1.0000E-12,,5.7485,5.7488,1.0617,,6.413,26.698,,,,,,,,,,,,
CalCOFI,2007SR,015,,2007_015u,16-Jul-2020 00:27:03,15-Jul-2020 16:27:03,30.51328,-122.25876,093.3 100.0,093.3,100.0,502.000,506.079,,5.7890,,5.7893,,5.7892,34.2142,,34.2144,34.2154,,34.2170,34.2157,0.4546,,0.4573,0.4417,1.8670,,0.5159,0.5604,0.5011,19.771,20.1508,24.2288,81.191,,33.3235,28.7762,0.0322,,,,1.7873,,39.9475,39.671,26.9634,,26.9643,,0.6254,85.5270,,7.538,,8.7405E+02,,1.0000E-12,,5.7458,5.7461,1.0617,,6.514,26.751,,,,,,,,,,,,
CalCOFI,2007SR,015,,2007_015u,16-Jul-2020 00:27:04,15-Jul-2020 16:27:04,30.51328,-122.25876,093.3 100.0,093.3,100.0,501.000,505.070,,5.7892,,5.7896,,5.7894,34.2117,,34.2119,34.2130,,34.2146,34.2133,0.4601,,0.4631,0.4474,1.8674,,0.5168,0.5615,0.5045,20.008,20.3983,24.4519,81.209,,33.3640,28.9080,0.0318,,,,1.7857,,39.9026,39.626,26.9615,,26.9624,,0.6253,85.5301,,7.538,,8.7393E+02,,1.0000E-12,,5.7461,5.7465,1.0617,,6.592,26.757,,,,,,,,,,,,
CalCOFI,2007SR,015,,2007_015u,16-Jul-2020 00:27:06,15-Jul-2020 16:27:06,30.51328,-122.25876,093.3 100.0,093.3,100.0,500.000,504.060,,5.7946,,5.7955,,5.7951,34.2113,,34.2115,34.2125,,34.2141,34.2128,0.4645,,0.4677,0.4521,1.8638,,0.5082,0.5522,0.5022,20.202,20.6008,24.6346,81.050,,33.0062,28.8204,0.0325,,,,1.7835,,39.8408,39.564,26.9604,,26.9613,,0.6251,85.5343,,7.538,,8.7075E+02,,1.0000E-12,,5.7517,5.7524,1.0617,,6.657,26.708,,,,,,,,,,,,
CalCOFI,2007SR,015,,2007_015u,16-Jul-2020 00:27:07,15-Jul-2020 16:27:07,30.51328,-122.25876,093.3 100.0,093.3,100.0,499.000,503.051,,5.7987,,5.7991,,5.7989,34.2082,,34.2084,34.2094,,34.2110,34.2097,0.4706,,0.4740,0.4585,1.8621,,0.5042,0.5478,0.5032,20.466,20.8764,24.8831,80.980,,32.8487,28.8659,0.0314,,,,1.7817,,39.7903,39.514,26.9575,,26.9584,,0.6253,85.5298,,7.538,,8.6742E+02,,1.0000E-12,,5.7557,5.7561,1.0617,,6.744,26.687,,,,,,,,,,,,
CalCOFI,2007SR,015,,2007_015u,16-Jul-2020 00:27:08,15-Jul-2020 16:27:08,30.51328,-122.25876,093.3 100.0,093.3,100.0,498.000,502.042,,5.8021,,5.8021,,5.8021,34.2068,,34.2070,34.2077,,34.2093,34.2082,0.4726,,0.4761,0.4606,1.8631,,0.5066,0.5504,0.5055,20.551,20.9651,24.9631,81.021,,32.9410,28.9521,0.0314,,,,1.7798,,39.7369,39.461,26.9559,,26.9567,,0.6254,85.5269,,7.538,,8.6531E+02,,1.0000E-12,,5.7592,5.7592,1.0617,,6.773,26.702,,,,,,,,,,,,
CalCOFI,2007SR,015,,2007_015u,16-Jul-2020 00:27:09,15-Jul-2020 16:27:09,30.51328,-122.25876,093.3 100.0,093.3,100.0,497.000,501.032,,5.7987,,5.7991,,5.7989,34.2049,,34.2051,34.2060,,34.2076,34.2064,0.4794,,0.4832,0.4678,1.8631,,0.5066,0.5504,0.5091,20.849,21.2762,25.2437,81.021,,32.9410,29.0924,0.0328,,,,1.7776,,39.6752,39.399,26.9549,,26.9557,,0.6251,85.5342,,7.538,,8.6453E+02,,1.0000E-12,,5.7559,5.7563,1.0617,,6.870,26.699,,,,,,,,,,,,
CalCOFI,2007SR,015,,2007_015u,16-Jul-2020 00:27:10,15-Jul-2020 16:27:10,30.51328,-122.25876,093.3 100.0,093.3,100.0,496.000,500.023,,5.8008,,5.8010,,5.8009,34.2042,,34.2044,34.2051,,34.2067,34.2056,0.4851,,0.4892,0.4738,1.8561,,0.4899,0.5324,0.5031,21.095,21.5330,25.4753,80.718,,32.2592,28.8673,0.0316,,,,1.7760,,39.6302,39.354,26.9540,,26.9547,,0.6254,85.5270,,7.538,,8.6470E+02,,1.0000E-12,,5.7581,5.7583,1.0617,,6.952,26.601,,,,,,,,,,,,
CalCOFI,2007SR,015,,2007_015u,16-Jul-2020 00:27:10,15-Jul-2020 16:27:10,30.51328,-122.25876,093.3 100.0,093.3,100.0,495.000,499.014,,5.7957,,5.7958,,5.7958,34.2011,,34.2013,34.2022,,34.2038,34.2026,0.4875,,0.4917,0.4763,1.8613,,0.5023,0.5458,0.5111,21.203,21.6457,25.5770,80.942,,32.7632,29.1701,0.0327,,,,1.7752,,39.6078,39.331,26.9522,,26.9531,,0.6252,85.5320,,7.538,,8.6710E+02,,1.0000E-12,,5.7531,5.7532,1.0617,,6.986,26.670,,,,,,,,,,,,
CalCOFI,2007SR,015,,2007_015u,16-Jul-2020 00:27:11,15-Jul-2020 16:27:11,30.51328,-122.25876,093.3 100.0,093.3,100.0,494.000,498.004,,5.7911,,5.7911,,5.7911,34.1997,,34.1999,34.2008,,34.2024,34.2012,0.4909,,0.4952,0.4799,1.8598,,0.4987,0.5419,0.5109,21.350,21.7992,25.7154,80.878,,32.6192,29.1673,0.0313,,,,1.7746,,39.5909,39.315,26.9516,,26.9525,,0.6254,85.5269,,7.538,,8.6836E+02,,1.0000E-12,,5.7487,5.7487,1.0617,,7.034,26.646,,,,,,,,,,,,
CalCOFI,2007SR,015,,2007_015u,16-Jul-2020 00:27:12,15-Jul-2020 16:27:12,30.51328,-122.25876,093.3 100.0,093.3,100.0,493.000,496.995,,5.7886,,5.7887,,5.7887,34.1987,,34.1989,34.1997,,34.2013,34.2001,0.4954,,0.4999,0.4846,1.8604,,0.5001,0.5435,0.5141,21.544,22.0017,25.8980,80.905,,32.6800,29.2890,0.0316,,,,1.7738,,39.5685,39.292,26.9512,,26.9519,,0.6253,85.5289,,7.538,,8.6835E+02,,1.0000E-12,,5.7462,5.7463,1.0617,,7.097,26.653,,,,,,,,,,,,
CalCOFI,2007SR,015,,2007_015u,16-Jul-2020 00:27:13,15-Jul-2020 16:27:13,30.51328,-122.25876,093.3 100.0,093.3,100.0,492.000,495.986,,5.7871,,5.7873,,5.7872,34.1970,,34.1972,34.1983,,34.1999,34.1986,0.5000,,0.5048,0.4895,1.8598,,0.4987,0.5419,0.5157,21.745,22.2115,26.0873,80.878,,32.6192,29.3533,0.0317,,,,1.7730,,39.5460,39.270,26.9500,,26.9509,,0.6243,85.5502,,7.538,,8.6747E+02,,1.0000E-12,,5.7448,5.7450,1.0617,,7.163,26.643,,,,,,,,,,,,
CalCOFI,2007SR,015,,2007_015u,16-Jul-2020 00:27:15,15-Jul-2020 16:27:15,30.51328,-122.25876,093.3 100.0,093.3,100.0,491.000,494.976,,5.7899,,5.7903,,5.7901,34.1961,,34.1963,34.1972,,34.1988,34.1976,0.5019,,0.5067,0.4915,1.8580,,0.4944,0.5373,0.5144,21.828,22.2981,26.1654,80.800,,32.4437,29.3046,0.0319,,,,1.7722,,39.5235,39.247,26.9489,,26.9497,,0.6252,85.5319,,7.538,,8.6413E+02,,1.0000E-12,,5.7477,5.7481,1.0617,,7.191,26.619,,,,,,,,,,,,
CalCOFI,2007SR,015,,2007_015u,16-Jul-2020 00:27:16,15-Jul-2020 16:27:16,30.51328,-122.25876,093.3 100.0,093.3,100.0,490.000,493.967,,5.7940,,5.7942,,5.7941,34.1949,,34.1951,34.1961,,34.1977,34.1964,0.5020,,0.5068,0.4916,1.8574,,0.4930,0.5357,0.5137,21.832,22.3023,26.1692,80.776,,32.3897,29.2795,0.0310,,,,1.7717,,39.5095,39.233,26.9474,,26.9483,,0.6243,85.5497,,7.539,,8.6218E+02,,1.0000E-12,,5.7520,5.7521,1.0617,,7.193,26.614,,,,,,,,,,,,
CalCOFI,2007SR,015,,2007_015u,16-Jul-2020 00:27:17,15-Jul-2020 16:27:17,30.51328,-122.25876,093.3 100.0,093.3,100.0,489.000,492.958,,5.7972,,5.7976,,5.7974,34.1946,,34.1948,34.1958,,34.1974,34.1961,0.4979,,0.5026,0.4873,1.8618,,0.5035,0.5471,0.5172,21.653,22.1155,26.0006,80.965,,32.8150,29.4078,0.0312,,,,1.7713,,39.4983,39.222,26.9468,,26.9477,,0.6245,85.5473,,7.538,,8.6054E+02,,1.0000E-12,,5.7552,5.7556,1.0617,,7.134,26.678,,,,,,,,,,,,
CalCOFI,2007SR,015,,2007_015u,16-Jul-2020 00:27:18,15-Jul-2020 16:27:18,30.51328,-122.25876,093.3 100.0,093.3,100.0,488.000,491.949,,5.8073,,5.8088,,5.8081,34.1957,,34.1959,34.1975,,34.1991,34.1975,0.4916,,0.4960,0.4806,1.8503,,0.4760,0.5174,0.4990,21.380,21.8305,25.7436,80.467,,31.6944,28.7190,0.0318,,,,1.7713,,39.4983,39.222,26.9464,,26.9477,,0.6252,85.5321,,7.539,,8.5884E+02,,1.0000E-12,,5.7653,5.7668,1.0617,,7.046,26.521,,,,,,,,,,,,
CalCOFI,2007SR,015,,2007_015u,16-Jul-2020 00:27:19,15-Jul-2020 16:27:19,30.51328,-122.25876,093.3 100.0,093.3,100.0,487.000,490.939,,5.8424,,5.8431,,5.8428,34.1995,,34.1997,34.2013,,34.2029,34.2013,0.4884,,0.4926,0.4773,1.8556,,0.4887,0.5311,0.5042,21.239,21.6833,25.6109,80.698,,32.2142,28.9126,0.0316,,,,1.7714,,39.5011,39.225,26.9451,,26.9464,,0.6251,85.5326,,7.540,,8.6013E+02,,1.0000E-12,,5.8004,5.8011,1.0617,,7.006,26.619,,,,,,,,,,,,
CalCOFI,2007SR,015,,2007_015u,16-Jul-2020 00:27:20,15-Jul-2020 16:27:20,30.51328,-122.25876,093.3 100.0,093.3,100.0,486.000,489.930,,5.8594,,5.8594,,5.8594,34.2003,,34.2005,34.2016,,34.2032,34.2019,0.4929,,0.4973,0.4820,1.8493,,0.4736,0.5149,0.4985,21.436,21.8889,25.7963,80.423,,31.5954,28.6959,0.0314,,,,1.7710,,39.4898,39.213,26.9436,,26.9446,,0.6251,85.5335,,7.539,,8.6558E+02,,1.0000E-12,,5.8174,5.8174,1.0617,,7.074,26.538,,,,,,,,,,,,
CalCOFI,2007SR,015,,2007_015u,16-Jul-2020 00:27:21,15-Jul-2020 16:27:21,30.51328,-122.25876,093.3 100.0,093.3,100.0,485.000,488.921,,5.8618,,5.8621,,5.8620,34.2004,,34.2006,34.2016,,34.2032,34.2019,0.4966,,0.5012,0.4859,1.8456,,0.4648,0.5053,0.4956,21.595,22.0549,25.9460,80.262,,31.2332,28.5896,0.0316,,,,1.7703,,39.4702,39.194,26.9433,,26.9443,,0.6246,85.5444,,7.541,,8.6987E+02,,1.0000E-12,,5.8199,5.8202,1.0617,,7.126,26.487,,,,,,,,,,,,
CalCOFI,2007SR,015,,2007_015u,16-Jul-2020 00:27:22,15-Jul-2020 16:27:22,30.51328,-122.25876,093.3 100.0,093.3,100.0,484.000,487.911,,5.8630,,5.8637,,5.8634,34.1998,,34.2000,34.2008,,34.2024,34.2012,0.5018,,0.5066,0.4914,1.8492,,0.4734,0.5146,0.5030,21.821,22.2908,26.1588,80.418,,31.5842,28.8715,0.0327,,,,1.7692,,39.4393,39.163,26.9427,,26.9434,,0.6251,85.5335,,7.541,,8.6941E+02,,1.0000E-12,,5.8212,5.8219,1.0617,,7.201,26.540,,,,,,,,,,,,
CalCOFI,2007SR,015,,2007_015u,16-Jul-2020 00:27:23,15-Jul-2020 16:27:23,30.51328,-122.25876,093.3 100.0,093.3,100.0,483.000,486.902,,5.8662,,5.8671,,5.8667,34.1992,,34.1994,34.2004,,34.2020,34.2007,0.5062,,0.5112,0.4960,1.8496,,0.4744,0.5156,0.5058,22.012,22.4902,26.3386,80.437,,31.6269,28.9828,0.0317,,,,1.7677,,39.3972,39.121,26.9419,,26.9427,,0.6252,85.5308,,7.541,,8.6475E+02,,1.0000E-12,,5.8244,5.8254,1.0617,,7.265,26.548,,,,,,,,,,,,
CalCOFI,2007SR,015,,2007_015u,16-Jul-2020 00:27:24,15-Jul-2020 16:27:24,30.51328,-122.25876,093.3 100.0,093.3,100.0,482.000,485.893,,5.8816,,5.8809,,5.8813,34.1985,,34.1987,34.1999,,34.2015,34.2001,0.5100,,0.5152,0.5000,1.8496,,0.4744,0.5156,0.5078,22.180,22.6656,26.4968,80.435,,31.6224,29.0596,0.0323,,,,1.7660,,39.3494,39.073,26.9394,,26.9406,,0.6250,85.5358,,7.541,,8.6111E+02,,1.0000E-12,,5.8399,5.8392,1.0617,,7.323,26.556,,,,,,,,,,,,
CalCOFI,2007SR,015,,2007_015u,16-Jul-2020 00:27:25,15-Jul-2020 16:27:25,30.51328,-122.25876,093.3 100.0,093.3,100.0,481.000,484.884,,5.8902,,5.8903,,5.8903,34.1966,,34.1968,34.1978,,34.1994,34.1981,0.5128,,0.5181,0.5030,1.8473,,0.4689,0.5097,0.5064,22.299,22.7898,26.6088,80.337,,31.4019,29.0054,0.0321,,,,1.7641,,39.2961,39.020,26.9368,,26.9377,,0.6251,85.5330,,7.542,,8.6140E+02,,1.0000E-12,,5.8485,5.8487,1.0617,,7.363,26.529,,,,,,,,,,,,
CalCOFI,2007SR,015,,2007_015u,16-Jul-2020 00:27:26,15-Jul-2020 16:27:26,30.51328,-122.25876,093.3 100.0,093.3,100.0,480.000,483.874,,5.8952,,5.8946,,5.8949,34.1959,,34.1961,34.1971,,34.1987,34.1974,0.5214,,0.5271,0.5120,1.8464,,0.4667,0.5074,0.5097,22.676,23.1834,26.9638,80.295,,31.3074,29.1356,0.0317,,,,1.7619,,39.2343,38.958,26.9356,,26.9367,,0.6250,85.5344,,7.542,,8.6498E+02,,1.0000E-12,,5.8536,5.8530,1.0617,,7.489,26.517,,,,,,,,,,,,
CalCOFI,2007SR,015,,2007_015u,16-Jul-2020 00:27:27,15-Jul-2020 16:27:27,30.51328,-122.25876,093.3 100.0,093.3,100.0,479.000,482.865,,5.8976,,5.8979,,5.8978,34.1953,,34.1955,34.1964,,34.1980,34.1968,0.5293,,0.5354,0.5204,1.8461,,0.4660,0.5066,0.5135,23.017,23.5393,27.2848,80.285,,31.2849,29.2849,0.0313,,,,1.7597,,39.1725,38.896,26.9348,,26.9357,,0.6250,85.5344,,7.543,,8.6877E+02,,1.0000E-12,,5.8561,5.8564,1.0617,,7.602,26.516,,,,,,,,,,,,
CalCOFI,2007SR,015,,2007_015u,16-Jul-2020 00:27:27,15-Jul-2020 16:27:27,30.51328,-122.25876,093.3 100.0,093.3,100.0,478.000,481.856,,5.9057,,5.9055,,5.9056,34.1926,,34.1928,34.1940,,34.1956,34.1942,0.5362,,0.5426,0.5276,1.8459,,0.4655,0.5061,0.5169,23.317,23.8525,27.5673,80.277,,31.2669,29.4171,0.0318,,,,1.7572,,39.1023,38.826,26.9317,,26.9328,,0.6244,85.5477,,7.543,,8.7025E+02,,1.0000E-12,,5.8642,5.8641,1.0617,,7.702,26.517,,,,,,,,,,,,
CalCOFI,2007SR,015,,2007_015u,16-Jul-2020 00:27:29,15-Jul-2020 16:27:29,30.51328,-122.25876,093.3 100.0,093.3,100.0,477.000,480.847,,5.9236,,5.9243,,5.9240,34.1903,,34.1905,34.1924,,34.1940,34.1923,0.5370,,0.5434,0.5285,1.8448,,0.4629,0.5033,0.5159,23.353,23.8901,27.6012,80.227,,31.1544,29.3778,0.0314,,,,1.7545,,39.0265,38.750,26.9276,,26.9291,,0.6246,85.5448,,7.543,,8.6745E+02,,1.0000E-12,,5.8822,5.8829,1.0617,,7.717,26.512,,,,,,,,,,,,
CalCOFI,2007SR,015,,2007_015u,16-Jul-2020 00:27:30,15-Jul-2020 16:27:30,30.51328,-122.25876,093.3 100.0,093.3,100.0,476.000,479.837,,5.9613,,5.9649,,5.9631,34.1908,,34.1910,34.1922,,34.1938,34.1924,0.5432,,0.5499,0.5350,1.8437,,0.4603,0.5005,0.5178,23.623,24.1719,27.8554,80.182,,31.0531,29.4543,0.0320,,,,1.7521,,38.9591,38.683,26.9233,,26.9239,,0.6243,85.5505,,7.543,,8.5984E+02,,1.0000E-12,,5.9199,5.9234,1.0617,,7.813,26.522,,,,,,,,,,,,
CalCOFI,2007SR,015,,2007_015u,16-Jul-2020 00:27:31,15-Jul-2020 16:27:31,30.51328,-122.25876,093.3 100.0,093.3,100.0,475.000,478.828,,5.9822,,5.9820,,5.9821,34.1908,,34.1910,34.1920,,34.1936,34.1923,0.5522,,0.5593,0.5445,1.8407,,0.4531,0.4927,0.5186,24.015,24.5812,28.2244,80.052,,30.7606,29.4925,0.0322,,,,1.7509,,38.9254,38.649,26.9206,,26.9216,,0.6243,85.5505,,7.543,,8.5430E+02,,1.0000E-12,,5.9407,5.9405,1.0617,,7.947,26.490,,,,,,,,,,,,
CalCOFI,2007SR,015,,2007_015u,16-Jul-2020 00:27:32,15-Jul-2020 16:27:32,30.51328,-122.25876,093.3 100.0,093.3,100.0,474.000,477.819,,5.9788,,5.9798,,5.9793,34.1875,,34.1877,34.1884,,34.1900,34.1889,0.5612,,0.5687,0.5540,1.8423,,0.4569,0.4968,0.5254,24.408,24.9914,28.5944,80.119,,30.9114,29.7529,0.0319,,,,1.7501,,38.9030,38.627,26.9185,,26.9191,,0.6243,85.5505,,7.543,,8.5150E+02,,1.0000E-12,,5.9374,5.9384,1.0617,,8.076,26.510,,,,,,,,,,,,
CalCOFI,2007SR,015,,2007_015u,16-Jul-2020 00:27:33,15-Jul-2020 16:27:33,30.51328,-122.25876,093.3 100.0,093.3,100.0,473.000,476.810,,5.9735,,5.9734,,5.9735,34.1852,,34.1854,34.1860,,34.1876,34.1865,0.5659,,0.5736,0.5589,1.8423,,0.4569,0.4968,0.5279,24.611,25.2033,28.7855,80.118,,30.9091,29.8473,0.0318,,,,1.7493,,38.8805,38.604,26.9173,,26.9179,,0.6245,85.5473,,7.543,,8.5138E+02,,1.0000E-12,,5.9322,5.9321,1.0617,,8.142,26.505,,,,,,,,,,,,
CalCOFI,2007SR,015,,2007_015u,16-Jul-2020 00:27:34,15-Jul-2020 16:27:34,30.51328,-122.25876,093.3 100.0,093.3,100.0,472.000,475.801,,5.9696,,5.9696,,5.9696,34.1821,,34.1823,34.1832,,34.1848,34.1836,0.5684,,0.5762,0.5616,1.8419,,0.4560,0.4958,0.5287,24.719,25.3161,28.8872,80.103,,30.8754,29.8813,0.0319,,,,1.7486,,38.8608,38.584,26.9154,,26.9162,,0.6244,85.5483,,7.543,,8.5505E+02,,1.0000E-12,,5.9284,5.9285,1.0617,,8.177,26.497,,,,,,,,,,,,
CalCOFI,2007SR,015,,2007_015u,16-Jul-2020 00:27:35,15-Jul-2020 16:27:35,30.51328,-122.25876,093.3 100.0,093.3,100.0,471.000,474.791,,5.9732,,5.9735,,5.9734,34.1812,,34.1814,34.1823,,34.1839,34.1827,0.5664,,0.5741,0.5595,1.8415,,0.4550,0.4948,0.5272,24.632,25.2252,28.8053,80.085,,30.8349,29.8201,0.0320,,,,1.7482,,38.8496,38.573,26.9141,,26.9150,,0.6243,85.5495,,7.543,,8.6173E+02,,1.0000E-12,,5.9321,5.9324,1.0617,,8.148,26.493,,,,,,,,,,,,
CalCOFI,2007SR,015,,2007_015u,16-Jul-2020 00:27:36,15-Jul-2020 16:27:36,30.51328,-122.25876,093.3 100.0,093.3,100.0,470.000,473.782,,5.9785,,5.9792,,5.9789,34.1813,,34.1815,34.1827,,34.1843,34.1829,0.5626,,0.5702,0.5555,1.8410,,0.4538,0.4935,0.5245,24.465,25.0509,28.6481,80.062,,30.7831,29.7156,0.0325,,,,1.7482,,38.8496,38.573,26.9136,,26.9146,,0.6244,85.5491,,7.543,,8.6801E+02,,1.0000E-12,,5.9375,5.9382,1.0617,,8.094,26.490,,,,,,,,,,,,
CalCOFI,2007SR,015,,2007_015u,16-Jul-2020 00:27:37,15-Jul-2020 16:27:37,30.51328,-122.25876,093.3 100.0,093.3,100.0,469.000,472.773,,5.9952,,5.9967,,5.9960,34.1830,,34.1832,34.1847,,34.1863,34.1848,0.5682,,0.5760,0.5614,1.8398,,0.4510,0.4904,0.5259,24.713,25.3098,28.8816,80.014,,30.6751,29.7784,0.0314,,,,1.7479,,38.8412,38.565,26.9128,,26.9140,,0.6243,85.5505,,7.543,,8.6538E+02,,1.0000E-12,,5.9542,5.9557,1.0617,,8.180,26.485,,,,,,,,,,,,
CalCOFI,2007SR,015,,2007_015u,16-Jul-2020 00:27:38,15-Jul-2020 16:27:38,30.51328,-122.25876,093.3 100.0,093.3,100.0,468.000,471.764,,6.0100,,6.0094,,6.0097,34.1848,,34.1850,34.1862,,34.1878,34.1864,0.5695,,0.5774,0.5627,1.8390,,0.4490,0.4883,0.5255,24.768,25.3672,28.9334,79.975,,30.5874,29.7604,0.0319,,,,1.7475,,38.8300,38.553,26.9124,,26.9136,,0.6243,85.5505,,7.543,,8.5464E+02,,1.0000E-12,,5.9691,5.9685,1.0617,,8.201,26.480,,,,,,,,,,,,
CalCOFI,2007SR,015,,2007_015u,16-Jul-2020 00:27:39,15-Jul-2020 16:27:39,30.51328,-122.25876,093.3 100.0,093.3,100.0,467.000,470.755,,6.0399,,6.0411,,6.0405,34.1871,,34.1873,34.1886,,34.1902,34.1888,0.5750,,0.5831,0.5685,1.8371,,0.4445,0.4835,0.5260,25.005,25.6146,29.1565,79.897,,30.4119,29.7842,0.0306,,,,1.7475,,38.8300,38.553,26.9105,,26.9114,,0.6243,85.5505,,7.545,,8.4603E+02,,1.0000E-12,,5.9990,6.0002,1.0617,,8.285,26.474,,,,,,,,,,,,
CalCOFI,2007SR,015,,2007_015u,16-Jul-2020 00:27:40,15-Jul-2020 16:27:40,30.51328,-122.25876,093.3 100.0,093.3,100.0,466.000,469.745,,6.0439,,6.0463,,6.0451,34.1828,,34.1830,34.1849,,34.1865,34.1848,0.5750,,0.5831,0.5685,1.8373,,0.4450,0.4840,0.5263,25.007,25.6167,29.1584,79.905,,30.4299,29.7942,0.0324,,,,1.7475,,38.8300,38.553,26.9065,,26.9079,,0.6243,85.5505,,7.544,,8.4202E+02,,1.0000E-12,,6.0031,6.0054,1.0617,,8.286,26.479,,,,,,,,,,,,